Theta_e
333 332 330 328 328 327 323 321 320 320 319 318 317 316 316 317 317 319 319 320 319 319 320 319 319 320 318 318 318 318 316 314 308 312 315 316 316 314 314 316 314 313 314
330 329 327 326 324 322 321 320 320 318 318 317 316 316 317 317 319 318 317 318 318 318 318 318 318 318 320 320 318 318 317 316 310 308 314 313 313 314 314 315 312 313 311
326 324 323 322 321 320 319 319 318 318 317 316 317 317 316 317 317 317 318 318 318 318 318 318 318 318 318 317 318 317 316 315 314 312 311 313 313 312 313 314 310 311 311
322 320 320 320 319 319 319 318 317 317 316 316 317 317 316 317 317 317 318 318 318 318 318 318 318 316 314 315 315 316 317 315 315 312 310 309 312 314 311 307 305 308 309
318 318 318 319 318 318 317 317 317 316 316 316 317 317 317 315 312 317 318 318 318 318 318 318 317 311 308 308 309 312 314 313 312 309 307 308 310 310 304 305 305 306 309
317 316 317 317 317 317 317 317 316 316 316 317 316 316 316 311 299 302 308 319 318 317 317 317 317 313 310 308 307 307 307 311 310 306 305 305 308 307 305 304 305 303 302
315 315 316 316 315 315 315 315 315 316 317 316 316 316 315 312 297 298 301 318 317 316 315 313 311 310 310 307 307 309 310 307 305 308 308 308 306 306 306 305 306 305 307
314 314 315 315 314 314 314 314 315 316 316 315 314 314 314 306 296 296 299 317 316 315 314 312 308 308 304 300 307 314 316 317 315 312 312 311 311 310 310 310 308 309 311
313 313 314 314 313 313 313 314 315 315 314 315 314 314 314 310 296 295 302 316 315 314 312 310 305 305 294 294 308 311 314 315 310 305 303 301 299 299 304 310 307 305 303
312 312 313 313 313 313 314 315 316 315 314 314 313 313 303 312 294 295 298 313 313 310 311 308 295 296 293 293 304 308 308 308 311 316 318 315 312 314 307 317 310 305 305
312 312 313 314 314 315 316 315 315 314 314 313 313 314 311 306 302 294 294 307 305 307 305 304 303 293 293 293 293 303 301 300 309 315 314 314 314 315 315 315 319 315 309
312 312 313 313 312 313 313 313 312 313 313 313 313 313 312 311 296 295 294 294 295 304 302 301 301 292 292 293 298 292 293 298 311 311 311 311 309 310 312 316 316 319 315
312 312 312 312 311 311 312 312 311 313 313 313 313 312 311 311 310 296 294 294 295 301 300 295 293 293 294 298 295 295 299 307 307 307 308 309 310 311 313 315 318 318 315
311 311 311 310 310 311 311 312 312 312 312 312 312 312 311 308 304 301 302 303 298 300 301 304 297 296 295 298 301 302 303 303 303 305 306 308 310 310 310 310 309 310 311
312 311 311 309 310 310 309 306 308 304 300 307 308 309 309 304 294 290 291 295 296 295 296 301 300 300 300 301 301 302 302 302 302 303 302 303 304 307 307 310 309 307 304
309 309 308 309 309 308 306 304 292 293 292 291 291 296 299 292 290 289 289 288 289 289 299 298 298 298 298 299 299 300 300 300 301 302 302 302 302 302 303 307 307 306 304
309 309 308 307 308 308 308 307 303 297 292 291 290 289 289 289 290 289 289 288 289 293 297 296 296 297 298 299 299 299 298 299 302 301 301 301 301 302 302 302 304 304 303
310 300 309 309 309 309 309 309 307 302 301 299 290 291 288 288 288 288 288 291 296 295 296 295 295 296 297 297 298 298 299 299 300 300 300 301 301 301 300 300 301 302 302
309 308 310 310 309 308 309 308 307 304 302 298 295 291 289 288 288 288 289 296 294 294 294 294 295 295 295 296 298 298 299 298 298 299 300 300 300 300 300 300 300 293 295
309 298 303 309 307 308 308 307 306 303 301 300 300 300 299 296 298 295 294 295 294 293 294 293 293 294 295 295 296 297 297 297 298 298 299 299 300 300 299 299 299 299 298
307 306 295 308 308 308 307 307 306 303 302 302 302 296 285 295 294 295 294 293 293 293 293 293 293 293 293 294 295 295 296 296 297 297 298 298 299 298 299 299 299 299 298
308 307 307 307 307 306 307 307 305 303 303 302 299 293 286 299 295 295 294 293 293 293 294 293 293 292 293 293 293 294 294 294 295 296 297 297 298 297 298 298 298 298 298
307 307 306 306 306 297 304 305 305 304 303 301 299 297 296 294 294 295 294 293 293 293 293 293 293 292 293 293 293 293 291 291 293 295 296 296 296 296 297 296 297 296 296
307 306 306 305 304 304 303 303 303 297 301 301 300 298 296 296 296 295 294 293 293 293 293 293 292 292 292 291 291 291 289 289 292 293 295 295 295 294 295 295 295 295 295
305 305 305 303 302 301 300 301 302 300 299 299 299 297 298 297 296 295 294 293 293 292 292 292 292 291 291 290 289 288 284 283 287 283 294 294 294 293 293 294 293 294 294
303 304 302 300 301 302 301 300 299 299 298 298 297 297 296 297 296 294 293 292 292 292 292 292 291 291 290 289 287 283 283 283 286 283 289 293 292 292 291 292 292 292 292
Wind_Speed
14 14 14 13 12 11 11 10 9 9 7 7 6 6 6 5 5 4 3 3 4 5 5 7 6 6 6 6 6 7 7 8 10 11 11 12 14 15 14 13 13 15 14
14 14 13 12 12 11 11 10 9 8 7 6 6 5 5 5 4 4 4 5 6 5 6 6 7 6 8 7 7 9 9 9 8 14 11 12 13 14 16 15 14 14 14
15 14 13 12 11 11 11 9 8 7 7 6 6 6 6 6 6 5 5 5 4 4 5 6 7 8 8 9 9 9 8 8 8 10 12 11 12 11 15 15 13 17 14
15 14 13 11 11 10 10 9 8 7 7 6 6 6 6 6 6 5 5 5 5 5 6 6 7 8 10 11 10 10 10 10 9 9 10 11 11 13 12 12 12 13 13
15 14 13 12 11 11 10 9 8 7 6 6 6 6 6 6 6 7 6 6 6 5 5 7 6 6 8 8 9 11 11 10 9 10 10 10 12 14 12 10 10 12 13
14 14 13 13 12 11 10 9 8 7 7 6 6 6 7 7 9 10 10 5 5 6 7 8 10 3 12 10 9 12 10 9 10 8 7 11 13 12 10 9 10 9 8
14 13 13 12 12 11 10 9 8 7 6 6 6 6 7 8 10 9 10 3 4 6 7 8 10 9 10 14 14 13 9 13 10 7 10 10 11 11 11 12 12 10 11
13 13 13 12 11 10 9 9 8 7 6 5 6 5 6 8 9 9 10 6 5 6 6 8 11 13 13 16 14 11 10 8 8 8 8 9 10 10 11 10 9 10 12
13 12 12 11 11 10 9 9 7 7 5 5 5 5 5 8 8 11 13 3 5 5 6 8 9 12 15 18 14 12 11 10 6 11 13 13 12 7 6 7 9 8 7
13 12 11 10 10 10 9 8 6 6 5 5 6 7 3 8 10 12 12 6 6 6 5 5 18 12 13 15 13 12 12 13 14 12 11 9 8 6 2 10 6 6 5
14 13 12 10 10 9 8 7 6 5 5 5 6 6 7 7 9 12 13 8 7 7 6 7 9 12 12 13 13 11 12 13 13 10 9 9 10 11 11 11 11 8 6
14 13 13 11 8 7 7 5 5 5 5 5 5 5 5 6 8 9 6 7 11 7 7 7 7 8 8 8 12 14 16 15 9 9 9 9 10 11 12 9 8 10 6
14 14 12 10 8 7 7 6 5 4 4 4 3 4 4 4 4 8 5 1 4 6 6 4 10 11 9 1 3 12 12 10 10 9 10 9 10 8 11 13 11 14 9
14 13 11 9 8 6 5 4 4 3 3 3 3 3 3 5 7 8 7 5 2 4 2 1 4 9 7 5 8 9 10 10 10 10 10 10 9 9 9 10 9 10 11
12 11 10 8 7 7 8 8 6 8 8 3 4 4 4 6 7 7 8 7 7 7 11 6 8 8 8 9 9 10 10 10 10 10 10 11 10 10 10 9 10 9 9
11 9 7 7 6 6 7 8 14 11 9 10 8 9 9 10 7 4 7 8 9 11 3 7 8 8 9 9 9 10 10 10 10 10 10 11 11 11 11 10 10 11 9
9 9 7 5 5 5 5 6 8 7 8 9 10 11 15 9 4 4 4 8 9 9 7 7 7 8 8 8 8 9 10 10 11 10 10 11 11 11 11 10 10 10 10
9 6 7 6 5 5 4 3 6 6 6 7 8 8 8 8 6 6 9 8 4 7 7 7 7 7 8 8 8 9 9 9 10 10 10 11 11 11 11 12 12 11 10
8 7 5 5 5 3 4 4 6 6 6 7 7 5 4 5 5 5 9 6 6 7 7 7 7 7 7 8 8 8 9 9 10 10 10 10 11 11 12 12 12 10 11
6 7 3 6 6 6 4 4 6 6 7 6 5 5 4 3 4 6 6 6 6 6 6 7 7 7 8 8 8 8 9 9 10 10 11 11 11 11 12 13 12 12 13
6 7 2 5 5 4 4 5 6 6 6 5 5 7 6 4 3 4 6 6 6 6 7 7 7 7 7 8 9 9 9 9 10 11 10 11 11 11 11 11 12 12 12
6 7 7 5 4 4 4 5 7 7 6 7 8 7 3 3 4 4 6 6 5 6 6 6 6 7 7 8 9 9 10 10 11 11 11 11 10 11 11 11 11 11 12
6 8 7 6 5 4 5 5 6 6 6 8 8 7 5 4 3 5 5 5 5 5 5 5 7 7 8 8 9 9 10 11 11 11 11 11 10 11 11 11 11 12 12
7 7 7 6 5 6 5 5 6 5 6 7 7 6 6 4 4 5 5 4 4 5 5 5 6 10 9 9 9 9 10 10 11 10 15 11 10 12 11 11 11 12 11
6 6 6 6 6 6 6 6 7 8 7 6 6 6 5 5 4 4 4 4 4 4 5 6 6 8 10 13 13 15 13 12 12 12 11 11 12 13 12 10 13 11 13
6 6 5 6 6 6 7 7 7 7 7 6 6 5 5 5 5 4 4 4 4 4 4 5 6 9 10 10 14 12 12 13 13 15 12 10 10 9 11 12 15 11 13
Wind_Direction
117 117 111 106 105 105 107 108 102 101 101 92 86 80 74 72 61 68 61 48 54 40 29 26 11 6 358 357 328 353 346 356 320 331 336 336 346 342 340 325 355 352 331
120 116 113 113 114 115 112 109 108 101 93 89 85 79 73 76 79 78 58 46 42 38 36 27 17 3 354 2 339 355 358 347 333 326 336 345 354 340 335 349 349 342 332
121 118 119 117 115 114 113 107 103 106 101 92 79 70 71 73 85 82 73 71 55 41 32 28 13 2 356 349 339 342 346 336 324 328 334 342 337 354 342 348 341 335 334
125 123 122 122 123 119 114 114 117 113 106 90 72 81 84 86 85 78 78 63 41 39 28 7 2 2 353 343 336 343 344 330 345 338 335 337 333 356 348 335 332 340 344
129 129 126 129 128 128 127 122 116 112 96 89 96 95 94 77 35 13 59 42 25 25 15 353 359 347 330 318 327 342 330 336 338 346 336 328 346 347 345 330 325 337 343
132 130 136 136 134 128 127 121 124 113 93 87 90 99 94 71 19 7 340 24 18 10 359 359 339 274 343 338 314 275 280 327 338 335 324 334 337 338 330 326 325 344 341
137 137 135 135 133 132 130 128 121 104 93 86 89 90 78 72 22 359 325 349 12 8 8 1 344 357 353 340 331 286 242 225 240 306 327 335 328 329 322 324 334 336 330
137 134 135 135 131 133 133 125 124 116 101 93 96 99 95 64 15 352 319 302 14 12 11 14 358 346 15 338 318 342 340 4 358 342 337 328 333 330 332 327 313 330 331
136 135 131 133 135 137 133 133 129 123 119 111 109 101 90 69 16 4 330 319 18 7 10 34 3 353 1 337 322 348 345 10 335 236 245 261 268 276 312 328 345 335 332
132 126 127 128 134 136 135 137 130 129 121 122 114 103 46 76 38 21 355 354 12 348 10 75 67 21 346 339 339 353 349 356 330 339 356 5 353 355 27 357 331 327 321
126 124 124 125 124 126 128 131 139 136 114 117 113 103 89 23 66 40 7 360 357 347 359 10 36 8 338 331 328 5 337 313 313 342 354 359 360 359 359 351 353 334 322
127 123 121 124 124 122 124 131 142 148 143 139 134 137 107 97 31 74 34 359 348 352 8 14 22 325 306 303 345 324 305 302 350 352 356 1 4 354 338 346 352 3 41
126 123 122 122 119 126 129 132 136 161 152 147 142 113 99 69 70 145 146 313 6 353 10 342 277 280 290 253 316 299 331 5 355 355 355 354 354 348 339 349 7 358 26
126 125 127 129 123 118 122 121 121 118 117 116 110 99 96 75 30 10 5 11 266 325 349 264 321 280 268 320 6 13 18 11 354 357 351 347 347 351 4 2 353 7 353
129 132 132 134 127 112 65 28 74 46 20 359 48 26 21 68 50 26 5 8 354 2 316 13 15 17 18 20 17 17 21 10 8 0 358 353 354 353 354 10 7 6 0
133 142 133 133 142 124 126 107 56 55 46 44 36 23 87 82 111 66 16 1 343 318 16 24 26 18 19 14 14 11 15 10 5 3 2 1 358 1 351 2 16 4 8
132 134 140 148 147 147 142 143 129 97 67 51 54 51 56 71 57 29 325 297 354 348 36 34 31 21 17 13 12 9 9 9 359 5 5 3 1 2 359 3 13 11 6
126 74 156 148 148 159 149 140 130 142 136 117 61 68 77 75 47 9 318 279 51 43 37 29 29 20 13 11 9 6 6 5 4 4 8 5 4 1 5 6 12 10 360
140 158 159 154 156 132 146 150 115 130 129 126 141 133 118 107 83 22 326 40 34 38 30 33 25 18 16 6 8 3 4 3 359 2 6 5 3 2 5 5 6 10 352
127 51 184 165 142 175 161 164 131 134 147 160 156 135 127 240 56 44 41 43 38 36 28 29 27 16 18 6 6 358 2 7 8 4 3 2 3 2 2 3 6 3 10
148 150 326 171 175 168 169 174 130 151 161 150 125 81 62 101 117 60 52 50 37 34 27 15 23 21 19 15 8 3 2 7 9 3 359 358 3 357 2 3 3 2 21
159 153 180 173 154 178 180 161 148 159 163 131 123 117 256 79 68 60 56 50 45 41 30 16 20 24 21 16 8 3 4 5 2 359 353 355 2 354 358 0 5 6 6
157 167 169 165 173 104 189 161 157 157 140 130 141 140 114 99 74 65 63 53 48 42 38 28 26 30 20 19 15 15 7 2 347 349 343 352 357 355 355 2 0 5 0
164 172 173 163 166 180 169 163 138 110 140 148 133 133 135 131 103 83 73 68 60 55 47 42 42 36 26 20 18 18 20 0 334 348 331 354 356 355 354 5 356 5 3
160 185 183 161 158 189 144 163 151 150 149 140 141 142 130 121 112 94 89 82 68 72 63 50 37 38 43 34 24 19 9 342 333 328 334 0 355 11 356 3 356 4 7
184 191 164 164 179 176 166 153 157 153 145 143 141 143 151 134 113 105 107 100 95 79 73 64 51 44 37 38 25 12 354 344 338 329 317 7 5 18 357 2 2 3 3